Погода в Маме

Погода в Маме : погода сейчас, прогноз погоды и архив. Всё, что Вы хотите узнать о погоде в Маме!

Поиск расширенной информации на нашем сайте:

Полезная информация: Купить входную железную дверь в квартиру.

Другие новости

Новости СМИ2

Главная страница сайта

Новости сайта

02.10.2013

Напоминаем, что на нашем новом сайте вы можете получить высокодетализированные прогнозы погоды по пунктам России, СНГ и мира (включающие важные для авиации метеовеличины, такие как направление и скорость ветра, видимость, явления погоды, количество и форма облачности, нижняя и верхняя граница облачности), а также ознакомиться с разнообразными материалами по авиационной метеорологии и подборкой полезных ссылок на эту тему.

Сайт Метеоцентр.Азия посвящён разработке технологий оптимизации авиаметеорологического обслуживания, включая проектирование и перспективное создание нескольких автоматизированных авиаметеорологических систем:
- система выпуска высокодетальных прогностических карт явлений погоды для нижнего воздушного пространства по России и ближнему зарубежью;
- система верификации прогнозов TAF (выпускаемых синоптиками официальных АМСГ РФ и ближнего зарубежья) и AUTOTAF (выпускаемых сайтом Метеоцентр.Азия) - выявление ошибок, онлайн-сопоставление с фактической погодой METAR, автоматическое внесение коррективов в прогнозы при резком отклонении фактической погоды от прогноза, подсчёт оправдываемости прогнозов по элементам и в целом;
- система обработки, анализа и отображения авиаметеорологической информации для применения провайдерами метеорологической информации.

Рекомендуем: Подбор авто.

Погода в Маме - сегодня

Время (UTC), дата Ветер
(°,м/с) 
Видим.   Явления Облачность Т
(°С)
Тd
(°С)
f(%) Тe
(°С)
Pmin
(гПа)
dP
(гПа)
Po
(мм)
O2
(г/м3)
Тmin Tmax R s Состояние
почвы
18 23.02.17 160 (Ю) 2000 м  ливневой снег  10/10 1000 м кучево-дожд. 
[Cb cap]
-9.6 -10.4 94 -9  1014.7  739  310           
21 23.02.17 тихо ()   2000 м  ливневой снег  10/10 1000 м кучево-дожд. 
[Cb cap]
-8.2 -8.8 95 -8  1016.5  1.8  741  309           
00 24.02.17 тихо ()   4000 м  слаб. ливневой снег  10/8 1000 м кучево-дожд., средняя 
[Cb cap|Ac As]
-7.3 -7.7 97 -7  1017.9  1.5  742  308  -10    81  равномерный
сухой снег
100% 
03 24.02.17 110 (В) 2000 м  ливневой снег  10/10 1000 м кучево-дожд. 
[Cb cap]
-6.8 -7.3 96 -6  1019.4  1.5  743  308           
06 24.02.17 320 (СЗ) 2000 м  ливневой снег  10/10 1000 м кучево-дожд. 
[Cb cap]
-2.5 -3.4 94 -2  1018.9  743  302           
09 24.02.17 100 (В) 18  4000 м  слаб. ливневой снег  8/8 1300 м кучево-дожд., средняя 
[Cb cap|Ac As]
-2.6   1019.3  0.5  743             
12 24.02.17 тихо ()   4000 м  {ливн. осадки}  10/4 1000 м кучево-дожд., верхняя 
[Cb cap|Ci fib]
-4.8 -5.4 96 -5  1019.6  743  305    -1.8     
15 24.02.17 тихо ()   4000 м  слаб. ливневой снег  10/10 1320 м кучево-дожд. 
[Cb cap]
-4 -4.5 96 -4  1019.3  -0.3  743  304           
18 24.02.17 150 (ЮВ) 4000 м  слаб. ливневой снег  10/10 1300 м кучево-дожд. 
[Cb cap]
-3.6 -4.4 94 -3  1018.4  -0.8  743  304           
21 24.02.17 тихо ()   4000 м  слаб. ливневой снег  10/10 1300 м кучево-дожд. 
[Cb cap]
-3.8 -4.6 94 -4  1017.6  -0.7  742  304           
00 25.02.17 250 (З) 20000 м  в посл. час ливневой снег  10/8 1300 м кучево-дожд., верхняя 
[Cb cap|Ci ing]
-3 -4 93 -4  1017.3  -0.3  742  303  -5.2    84  равномерный
сухой снег
100% 
03 25.02.17 100 (В) 20000 м  {ливн. осадки}  10/8 1320 м кучево-дожд., верхняя 
[Cb cap|Ci ing]
-1.8 -3.6 87 -1  1016.3  -0.8  741  301           
06 25.02.17 070 (В) 20000 м  {ливн. осадки}  10/8 1320 м кучево-дожд., верхняя 
[Cb cap|Ci ing]
+1.3 -4.6 65 +1  1014.4  -1.6  740  297           
09 25.02.17 тихо ()   20000 м    10/4 1000 м кучево-дожд., верхняя 
[Cb cap|Ci fib]
+1.7 -5.6 58 +2  1012.4  -1.9  739  296           
12 25.02.17 120 (ЮВ) 20000 м    8/3 1000 м кучево-дожд., средняя, верхняя 
[Cb cap|Ac trans|Ci fib]
-1.3 -5.3 74 -3  1012.7  -0.1  738  300    +2.7  0.0     
15 25.02.17 120 (ЮВ) 20000 м    8/3 1000 м кучево-дожд., средняя, верхняя 
[Cb cap|Ac trans|Ci fib]
+0.1 -6.7 60 -2  1011.1  -1.3  737  298           
18 25.02.17 120 (ЮВ) 2000 м  ливневой снег  10/10 1000 м кучево-дожд. 
[Cb cap]
-1.3 -1.8 96 -3  1009.2  -2.1  736  298           
21 25.02.17 090 (В) 2000 м  ливневой снег  10/10 1000 м кучево-дожд. 
[Cb cap]
-0.3 -0.6 98 -1  1007.4  -1.6  735  296           
00 26.02.17 320 (СЗ) 6{11}  4000 м  слаб. ливневой снег  10/8 1200 м кучево-дожд., средняя 
[Cb cap|Ac As]
-4.8 -7.2 83 -9  1011.1  3.1  737  303  -4.8    86  равномерный
мокрый или
старый снег
100% 
03 26.02.17 330 (СЗ) 3{10}  20000 м  в посл. час ливневой снег  10/5 1000 м кучево-дожд., средняя 
[Cb cap|Ac und]
-5.4 -9.6 72 -8  1012.4  1.2  738  304  -5.8         
06 26.02.17 340 (С) 2{10}  20000 м  {ливн. осадки}  9/3 1000 м кучево-дожд., средняя, верхняя 
[Cb cap|Ac trans|Ci fib]
-5.8 -12.5 59 -7  1012.7  0.2  738  305           
09 26.02.17 350 (С) 20000 м    10/3 1000 м верхняя 
[Sc|Ci fib]
-6.2 -15.5 48 -6  1012.4  0.3  738  305           
12 26.02.17 300 (СЗ) 20000 м    6/0 верхняя 
[Ci fib]
-14.7 -18.1 75 -15  1015.1  1.7  739  316    -4.6  0.2     
15 26.02.17 310 (СЗ) 20000 м    3/0 верхняя 
[Ci fib]
-18.1 -22.2 70 -21  1016.9  1.4  740  321           
18 26.02.17 340 (С) 20000 м    5/0 верхняя 
[Ci fib]
-15.2 -20.3 65 -19  1019.5  2.8  742  318           
Время (UTC), дата Ветер
(°,м/с) 
Видим.   Явления Облачность Т
(°С)
Тd
(°С)
f(%) Тe
(°С)
Pmin
(гПа)
dP
(гПа)
Po
(мм)
O2
(г/м3)
Тmin Tmax R s Состояние
почвы

Для получения пояснительной информации подведите курсор к названию столбца.

ПОГОДА в Маме - архив

Всё, что Вы хотите узнать о погоде в Маме - удобно и подробно!

Выберите нужную дату (начиная с 1 января 2015* года) и нажмите кнопку "Найти".
Будут отображены архивные сводки погоды по пункту Мама, начиная с указанной даты.


Отображать данные в формате CSV (для использования в таблицах Excel)


Внимание! Наш архив погоды предназначен исключительно для личного некоммерческого использования в познавательных целях. Если Вам необходимы официальные справки о состоянии погоды (для производственных, юридических, коммерческих и т.п. целей), обращайтесь в органы Росгидромета.

*Примечание: данная дата относится к архиву по метеостанциям СССР (Россия, СНГ, Балтия).
Архив по метеостанциям Зарубежной Европы и Азии (кроме Китая) хранится 10 дней, по другим регионам земного шара (Китай, Африка, Америка, Австралия, Океания) - 1 день.

Мама - район местоположения метеостанции


Название, широта, долгота, высота метеостанции:
Мама 58.3°ш. 112.9°д. 224 м над ур. моря [Российская Федерация]

Дополнительная информация

В oтличие oт бoльшинства пoгoдных сайтoв мы публикуем пoдрoбную метеoинфoрмацию в детальнoм прoфессиoнальнoм фoрмате.

Характеристики температуры и влажнoсти вoздуха измеряются на высoте 2 м в тени вдали oт зданий и деревьев.
Скoрoсть ветра измеряется на высoте 10 м (на урoвне рoста челoвека скoрoсть ветра ниже в 1.5-2 раза). Если метеoстанция нахoдится в гoрoде или в лесу, тo скoрoсть ветра занижена на 2-4 м/с пo сравнению с oткрытым местoм. Скoрoсть ветра над акватoриями крупных рек и oзёр, а также на вершинах хoлмoв на 2-5 м/с выше, чем в oбычных услoвиях.
Атмoсфернoе давление в разных тoчках местнoсти мoжет значительнo oтличаться oт давления на метеoстанции, в зависимoсти oт услoвий рельефа (при пoдъёме на 10 м давление пoнижается примернo на 1 мм рт.ст.).